Weather History for Christchurch, New Zealand

Change the Weather History Date:

Tuesday, May 20, 2014

  Actual Average Record
Temperature  
Mean Temperature 56 °F -  
Max Temperature 69 °F 56 °F 77 °F (2003)
Min Temperature 44 °F 39 °F 26 °F (2012)
Degree Days  
Heating Degree Days 8    
Growing Degree Days 6 (Base 50)    
Moisture  
Dew Point 46 °F    
Average Humidity 66    
Maximum Humidity 100    
Minimum Humidity 40    
Precipitation  
Precipitation 0.00 in - - ()
Sea Level Pressure  
Sea Level Pressure 29.87 in    
Wind  
Wind Speed 6 mph ()    
Max Wind Speed 20 mph    
Max Gust Speed -    
Visibility 6.1 miles    
Events Fog    
Averages and records for this station are not official NWS values.
T = Trace of Precipitation, MM = Missing Value Source: Averaged Metar Reports

Daily Weather History Graph

Daily Weather History Graph

Search for Another Location

Airport:

Trip Planner

Search our weather history database for the weather conditions in past years. The results will help you decide how hot, cold, wet, or windy it might be!

Date:

Astronomy

May. 20, 2014 Rise Set
Actual Time 7:41 AM NZST 5:10 PM NZST
Civil Twilight 7:10 AM NZST 5:42 PM NZST
Nautical Twilight 6:35 AM NZST 6:17 PM NZST
Astronomical Twilight 6:00 AM NZST 6:51 PM NZST
Moon 10:57 PM NZST (5/20) 12:07 PM NZST (5/20)
Length of Visible Light 10h 32m
Length of Day
9h 29m
Waning Gibbous, 68% of the Moon is Illuminated
May 20
Waning Gibbous
May 22
Last Quarter
May 29
New
Jun 6
First Quarter
Jun 13
Full

Hourly Weather History & Observations

Time (NZST) Temp. Windchill Dew Point Humidity Pressure Visibility Wind Dir Wind Speed Gust Speed Precip Events Conditions
12:00 AM 46.4 °F - 46.4 °F 100% 30.04 in 5.0 mi North 2.3 mph - N/A Fog Fog
12:30 AM 44.6 °F 43.1 °F 44.6 °F 100% 30.01 in 5.0 mi North 3.5 mph - N/A Fog Fog
3:00 AM 48.2 °F - 48.2 °F 100% 29.98 in 6.2 mi North 1.2 mph - N/A   Unknown
3:30 AM 46.4 °F - 46.4 °F 100% 29.98 in 6.2 mi NNE 2.3 mph - N/A   Unknown
4:00 AM 48.2 °F - 48.2 °F 100% 29.98 in 6.2 mi Calm Calm - N/A   Unknown
4:30 AM 48.2 °F - 48.2 °F 100% 29.95 in 6.2 mi Calm Calm - N/A   Unknown
5:00 AM 50.0 °F - 48.2 °F 94% 29.95 in 6.2 mi NE 2.3 mph - N/A   Unknown
5:30 AM 50.0 °F - 48.2 °F 94% 29.95 in 6.2 mi NNE 3.5 mph - N/A   Unknown
6:00 AM 50.0 °F - 48.2 °F 94% 29.95 in 6.2 mi NE 1.2 mph - N/A   Unknown
6:30 AM 50.0 °F - 48.2 °F 94% 29.95 in 6.2 mi NNE 1.2 mph - N/A   Unknown
7:00 AM 51.8 °F - 48.2 °F 88% 29.95 in 6.2 mi East 5.8 mph - N/A   Unknown
7:30 AM 50.0 °F - 48.2 °F 94% 29.95 in 6.2 mi NE 4.6 mph - N/A   Unknown
8:00 AM 51.8 °F - 48.2 °F 88% 29.92 in 6.2 mi NNE 3.5 mph - N/A   Unknown
8:30 AM 50.0 °F - 48.2 °F 94% 29.92 in 6.2 mi NNE 3.5 mph - N/A   Unknown
9:00 AM 51.8 °F - 50.0 °F 94% 29.92 in 6.2 mi ESE 5.8 mph - N/A   Unknown
9:30 AM 55.4 °F - 51.8 °F 88% 29.92 in 6.2 mi NNE 4.6 mph - N/A   Unknown
10:00 AM 60.8 °F - 51.8 °F 72% 29.92 in 6.2 mi NW 3.5 mph - N/A   Unknown
11:00 AM 68.0 °F - 48.2 °F 49% 29.92 in 6.2 mi WNW 12.7 mph - N/A   Unknown
11:30 AM 68.0 °F - 48.2 °F 49% 29.92 in 6.2 mi WNW 4.6 mph - N/A   Unknown
12:00 PM 68.0 °F - 46.4 °F 46% 29.89 in 6.2 mi WNW 16.1 mph - N/A   Unknown
12:30 PM 68.0 °F - 46.4 °F 46% 29.86 in 6.2 mi NW 15.0 mph - N/A   Unknown
1:00 PM 68.0 °F - 46.4 °F 46% 29.86 in 6.2 mi WNW 16.1 mph - N/A   Unknown
1:30 PM 68.0 °F - 44.6 °F 43% 29.86 in 6.2 mi WNW 15.0 mph - N/A   Unknown
2:00 PM 69.8 °F - 44.6 °F 40% 29.86 in 6.2 mi NW 13.8 mph - N/A   Unknown
2:30 PM 68.0 °F - 44.6 °F 43% 29.83 in 6.2 mi WNW 19.6 mph - N/A   Unknown
3:00 PM 68.0 °F - 42.8 °F 40% 29.83 in 6.2 mi NW 15.0 mph - N/A   Unknown
3:30 PM 66.2 °F - 44.6 °F 46% 29.80 in 6.2 mi NW 12.7 mph - N/A   Unknown
4:00 PM 64.4 °F - 44.6 °F 49% 29.83 in 6.2 mi NW 8.1 mph - N/A   Unknown
4:30 PM 64.4 °F - 44.6 °F 49% 29.80 in 6.2 mi WNW 9.2 mph - N/A   Unknown
5:00 PM 64.4 °F - 46.4 °F 52% 29.80 in 6.2 mi NW 8.1 mph - N/A   Unknown
5:30 PM 64.4 °F - 44.6 °F 49% 29.80 in 6.2 mi WNW 11.5 mph - N/A   Unknown
6:00 PM 62.6 °F - 44.6 °F 52% 29.80 in 6.2 mi NW 8.1 mph - N/A   Unknown
6:30 PM 60.8 °F - 44.6 °F 55% 29.80 in 6.2 mi North 5.8 mph - N/A   Unknown
7:00 PM 64.4 °F - 44.6 °F 49% 29.80 in 6.2 mi NW 10.4 mph - N/A   Unknown
7:30 PM 64.4 °F - 44.6 °F 49% 29.80 in 6.2 mi North 8.1 mph - N/A   Unknown
8:00 PM 66.2 °F - 42.8 °F 43% 29.80 in 6.2 mi WNW 17.3 mph - N/A   Unknown
8:30 PM 64.4 °F - 42.8 °F 45% 29.80 in 6.2 mi WNW 15.0 mph - N/A   Unknown
9:00 PM 64.4 °F - 42.8 °F 45% 29.80 in 6.2 mi WNW 11.5 mph - N/A   Unknown
9:30 PM 62.6 °F - 44.6 °F 52% 29.80 in 6.2 mi NW 9.2 mph - N/A   Unknown
10:00 PM 60.8 °F - 44.6 °F 55% 29.80 in 6.2 mi NW 5.8 mph - N/A   Unknown
10:30 PM 62.6 °F - 44.6 °F 52% 29.77 in 6.2 mi West 6.9 mph - N/A   Unknown
11:00 PM 62.6 °F - 44.6 °F 52% 29.77 in 6.2 mi NW 15.0 mph - N/A   Unknown
11:30 PM 62.6 °F - 44.6 °F 52% 29.77 in 6.2 mi WNW 10.4 mph - N/A   Unknown